TimeEST,TemperatureF,Dew PointF,Humidity,Sea Level PressureIn,VisibilityMPH,Wind Direction,Wind SpeedMPH,Gust SpeedMPH,PrecipitationIn,Events,Conditions,WindDirDegrees,DateUTC
12:56 AM,50.0,46.9,89,30.25,10.0,Calm,Calm,-,N/A,,Overcast,0,2012-12-04 05:56:00
1:56 AM,50.0,46.9,89,30.25,10.0,Calm,Calm,-,N/A,,Overcast,0,2012-12-04 06:56:00
2:56 AM,51.1,46.9,86,30.25,10.0,Calm,Calm,-,N/A,,Overcast,0,2012-12-04 07:56:00
3:56 AM,50.0,46.0,86,30.23,10.0,Calm,Calm,-,N/A,,Overcast,0,2012-12-04 08:56:00
4:56 AM,50.0,46.0,86,30.24,10.0,Calm,Calm,-,N/A,,Overcast,0,2012-12-04 09:56:00
5:56 AM,48.0,44.1,86,30.24,10.0,Calm,Calm,-,N/A,,Clear,0,2012-12-04 10:56:00
6:56 AM,46.9,44.1,90,30.25,8.0,Calm,Calm,-,N/A,,Mostly Cloudy,0,2012-12-04 11:56:00
7:56 AM,48.9,46.0,90,30.25,10.0,Calm,Calm,-,N/A,,Mostly Cloudy,0,2012-12-04 12:56:00
8:56 AM,51.1,48.0,89,30.26,6.0,WSW,3.5,-,N/A,,Mostly Cloudy,240,2012-12-04 13:56:00
9:56 AM,53.1,50.0,89,30.26,7.0,Calm,Calm,-,N/A,,Scattered Clouds,0,2012-12-04 14:56:00
10:56 AM,55.9,50.0,80,30.24,10.0,SSW,3.5,-,N/A,,Mostly Cloudy,210,2012-12-04 15:56:00
11:56 AM,60.1,51.1,72,30.21,10.0,SSW,5.8,-,N/A,,Mostly Cloudy,200,2012-12-04 16:56:00
12:56 PM,63.0,51.1,65,30.17,10.0,South,5.8,-,N/A,,Mostly Cloudy,190,2012-12-04 17:56:00
1:56 PM,66.0,48.0,52,30.14,10.0,SW,12.7,-,N/A,,Mostly Cloudy,220,2012-12-04 18:56:00
2:56 PM,68.0,48.0,49,30.12,10.0,SSW,12.7,-,N/A,,Mostly Cloudy,210,2012-12-04 19:56:00
3:56 PM,57.0,46.9,69,30.12,10.0,SSW,6.9,-,N/A,,Mostly Cloudy,200,2012-12-04 20:56:00
4:56 PM,57.0,46.9,69,30.12,10.0,SSW,10.4,-,N/A,,Mostly Cloudy,200,2012-12-04 21:56:00
5:56 PM,54.0,46.9,77,30.12,10.0,South,8.1,-,N/A,,Mostly Cloudy,190,2012-12-04 22:56:00
6:56 PM,55.0,46.9,74,30.11,10.0,SSW,9.2,-,N/A,,Mostly Cloudy,200,2012-12-04 23:56:00
7:56 PM,55.0,46.9,74,30.10,10.0,South,9.2,-,N/A,,Overcast,190,2012-12-05 00:56:00
8:56 PM,55.0,46.9,74,30.09,10.0,SW,10.4,-,N/A,,Overcast,220,2012-12-05 01:56:00
9:56 PM,66.0,46.9,50,30.08,10.0,SW,9.2,-,N/A,,Mostly Cloudy,230,2012-12-05 02:56:00
10:56 PM,60.1,46.9,62,30.07,10.0,SW,9.2,-,N/A,,Mostly Cloudy,220,2012-12-05 03:56:00
11:56 PM,53.1,46.0,77,30.05,10.0,SSW,9.2,-,N/A,,Mostly Cloudy,200,2012-12-05 04:56:00